Location: Detroit
(42.3310°N, 83.0460°W)
Time: 08:54:08
(UTC-04:00)

Explorer 11/Cluster Stage 4 - Pass Details

Date: 15 February 2023
Orbit: 466 x 1241 km, 28.8° (Epoch: 02 April)

Event Time Altitude Azimuth Distance (km) Brightness Sun altitude
Exits shadow 04:06:25 10° 149° (SSE) 2,785 9.5 -37.7°
Drops below altitude 10° 04:06:35 10° 148° (SSE) 2,827 9.5 -37.7°
Sets 04:10:19 0° 132° (SE) 3,897 10.5 -37.0°
